Regional Weather Roundup
Issued by NWS Newport/Morehead, NC

Current Version | Previous Version | Graphics & Text | Print | Product List | Glossary Off
Versions: 1 2 3 4 5 6 7 8 9 10 11 12 13 14 15 16 17 18 19 20 21 22 23 24 25 26 27 28 29 30 31 32 33 34 35 36 37 38 39 40 41 42 43 44 45 46 47 48 49 50

290
ASUS42 KMHX 271814
RWRMHX
WEATHER ROUNDUP FOR EASTERN NORTH CAROLINA
NATIONAL WEATHER SERVICE NEWPORT/MOREHEAD CITY NC
200 PM EDT THU JUL 27 2017

NOTE: "FAIR" INDICATES FEW OR NO CLOUDS BELOW 12,000 FEET
WITH NO SIGNIFICANT WEATHER AND/OR OBSTRUCTIONS TO VISIBILITY

NCZ015>017-031-032-045>047-102-103-271900-
NORTH COAST

CITY           SKY/WX    TMP DP  RH WIND       PRES   REMARKS
EDENTON        MOSUNNY   87  72  60 CALM      30.01F
ELIZABETH CITY SUNNY     86  72  62 S9        29.99F
KITTY HAWK     MOCLDY    84  65  52 CALM      30.00F
MANTEO         MOSUNNY   83  71  67 S10       30.01F

$$

NCZ045>047-081-094-103-104-271900-
CENTRAL COAST

CITY           SKY/WX    TMP DP  RH WIND       PRES   REMARKS
FRISCO         SUNNY     86  70  58 S6        30.03F

$$

NCZ095-097-098-100-101-271900-
SOUTHERN COAST

CITY           SKY/WX    TMP DP  RH WIND       PRES   REMARKS
BEAUFORT       SUNNY     85  73  67 SW10      30.02F
CEDAR ISLAND   NOT AVBL
JACKSONVILLE   SUNNY     87  71  58 S9        30.01F
PINEY ISLAND   MOCLDY   N/A N/A N/A S8        30.01F
WILMINGTON     SUNNY     87  65  47 SE9       30.01F


$$

NCZ011>013-027>030-043-044-078>080-089-090>093-098-271900-
COASTAL PLAIN

CITY           SKY/WX    TMP DP  RH WIND       PRES   REMARKS
AHOSKIE          N/A     85  72  66 S3        29.99F
CLINTON        SUNNY     89  71  54 S6        30.01F
ELIZABETHTOWN  NOT AVBL
GOLDSBORO      MOSUNNY   91  67  44 S9        29.98F
GREENVILLE     MOSUNNY   90  70  51 SW6       30.01F
HAVELOCK       MOSUNNY   88  69  53 SW13      30.02F
KENANSVILLE    MOSUNNY   91  68  46 W5        30.00F
KINSTON        PTSUNNY   91  64  40 S9        30.00F
NEW BERN       PTSUNNY   87  69  54 S8        30.02F
RICHLANDS      PTSUNNY   87  71  58 S9        30.01F
ROCKY MOUNT    MOSUNNY   89  70  53 SW9       29.99F
WASHINGTON     MOSUNNY   88  69  53 SW7       30.01F
WHITEVILLE     PTSUNNY   89  71  54 S8        30.00F

$$

AMZ130-135-150-152-154-156-158-170-250-252-270-ANZ085-086-088-633-658-670-271900-
MARINE OBSERVATIONS

STATION/POSITION TIME  TEMP    WIND        PRES    WAVE   SWELL
                       AIR SEA DIR/SP/G            HT/PER HT/PER
                 (UTC) (F)     (DEG/KT/KT) (MB)    (FT/S) (FT/S)
CHESAPEAKE LIGHT NOT AVBL
64 E VA BEACH    1750   77 79  190/  8/ 10 1016.7    2/ 7   2/ 7
DUCK             1748   79 72  130/  8/  9 1015.6
2 E DUCK         1800      75                N/A     2/ 8
OREGON INLET     1742   81 79  170/ 10/ 12 1016.4
13E OREGON INLT  1748      79                N/A     3/ 8   2/ 8
HATTERAS CG      1742   83 79  180/  7/  8 1016.8
DIAMOND BUOY     1750   81 86  200/  6/  6 1016.9    3/ 8   3/ 8
CAPE LOOKOUT     1800   83     160/  8/ 10 1016.5
BEAUFORT LAB     1748   81 79  190/ 10/ 11 1016.2
30 SE NEW RVR IN 1708   82 85  190/  6/  8 1017.6
30 SE NEW RVR IN 1743      85                N/A     2/ 7
27 SE WRIGHTSVLE 1708   83 83  140/  6/  8 1017.4
5 SE WRIGHTSVLE  1708   82 83  160/  8/ 12 1017.2
225 S CAPE HAT   1750   82 83  310/ 10/ 12 1016.8    3/ 7   3/ 7
41 SE CHARLESTON 1750   80 83  270/  4/  8 1016.4    2/ 8   2/ 8

$$




USA.gov is the U.S. government's official web portal to all federal, state and local government web resources and services.